Location: Unspecified
(0.0000°N, 0.0000°E)
Time: 07:57:13
(UTC+00:00)

Vanguard 2 Rocket - Visible Passes

Search period start: 20 August 2017 00:00
Search period end: 30 August 2017 00:00
Orbit: 554 x 3328 km, 32.9° (Epoch: 19 August)

Date Brightness Start Highest point End Pass type
(mag) Time Alt. Az. Time Alt. Az. Time Alt. Az.
20 Aug 10.6 18:21:06 10° WSW 18:35:00 22° SSW 18:48:12 10° SSE visible
20 Aug 10.4 20:49:54 10° SSW 20:58:57 15° S 20:59:39 15° S visible
21 Aug 10.4 19:44:52 10° SW 19:55:42 17° S 20:03:35 12° SSE visible
21 Aug 10.7 22:07:46 10° SSW 22:09:24 12° SSW 22:09:24 12° SSW visible
22 Aug 10.6 18:39:32 10° SW 18:51:59 19° S 19:03:32 10° SSE visible
22 Aug 10.4 21:05:00 10° SSW 21:13:21 18° S 21:13:21 18° S visible
23 Aug 10.3 20:01:26 10° SSW 20:12:54 18° S 20:17:17 16° SSE visible
23 Aug 10.7 22:21:28 10° SSW 22:23:07 13° SSW 22:23:07 13° SSW visible
24 Aug 10.5 18:57:16 10° SW 19:09:17 18° S 19:20:06 10° SE visible
24 Aug 10.3 21:19:13 10° SSW 21:27:04 21° S 21:27:04 21° S visible
25 Aug 10.2 20:16:34 10° SSW 20:29:49 22° SSE 20:31:03 22° SSE visible
25 Aug 10.7 22:35:15 10° SW 22:36:53 13° SW 22:36:53 13° SW visible
26 Aug 10.3 19:13:33 10° SSW 19:26:32 20° S 19:35:04 14° SE visible
26 Aug 10.3 21:33:07 10° SW 21:40:53 24° SSW 21:40:53 24° SSW visible
27 Aug 10.6 18:10:16 10° SW 18:22:43 19° S 18:34:37 10° SE visible
27 Aug 10.0 20:30:52 10° SSW 20:44:56 28° SSE 20:44:56 28° SSE visible
27 Aug 10.8 22:49:16 10° SW 22:50:45 13° SW 22:50:45 13° SW visible
28 Aug 10.1 19:28:34 10° SSW 19:43:24 24° SSE 19:49:01 21° SE visible
28 Aug 10.2 21:47:01 10° SW 21:54:50 28° SSW 21:54:50 28° SSW visible
29 Aug 10.4 18:26:13 10° SSW 18:39:56 21° SSE 18:52:32 10° SE visible
29 Aug 9.8 20:44:52 10° SW 20:58:58 37° S 20:58:58 37° S visible
29 Aug 10.8 23:03:40 10° SW 23:04:48 13° SW 23:04:48 13° SW visible
